Tracking 25620 objects as of 18-May-2022
HD Live streaming from Space Station
objects crossing your sky now

COSMOS 402

Track COSMOS 402 now!
10-day predictions
COSMOS 402 is classified as:


NORAD ID: 5105
Int'l Code: 1971-025A
Perigee: 968.3 km
Apogee: 1,023.2 km
Inclination: 65.0 °
Period: 104.9 minutes
Semi major axis: 7366 km
RCS: 3.1116 m2 (large)
Launch date: April 1, 1971
Source: Commonwealth of Independent States (former USSR) (CIS)
Launch site: TYURATAM MISSILE AND SPACE COMPLEX (TTMTR)
aabbcc
Your satellite tracking list
Your tracking list is empty




NASA's NSSDC Master Catalog

Two Line Element Set (TLE):
1 05105U 71025A   22137.90899060 -.00000093  00000-0 -67876-5 0  9995
2 05105  64.9816  80.6379 0037257  11.3850  53.2612 13.73068914563276
Source of the keplerian elements: AFSPC